TimeEDT,TemperatureF,Dew PointF,Humidity,Sea Level PressureIn,VisibilityMPH,Wind Direction,Wind SpeedMPH,Gust SpeedMPH,PrecipitationIn,Events,Conditions,WindDirDegrees,DateUTC
12:33 AM,46.4,46.4,100,30.17,1.5,Calm,Calm,-,N/A,,Clear,0,2013-10-11 04:33:00
12:43 AM,46.4,46.4,100,30.17,2.0,Calm,Calm,-,N/A,,Partly Cloudy,0,2013-10-11 04:43:00
12:51 AM,46.4,46.4,100,30.17,1.0,Calm,Calm,-,N/A,,Mist,0,2013-10-11 04:51:00
12:56 AM,44.1,44.1,100,30.21,1.2,Calm,Calm,-,N/A,,Partly Cloudy,0,2013-10-11 04:56:00
12:59 AM,44.6,42.8,93,30.17,4.0,Calm,Calm,-,N/A,,Partly Cloudy,0,2013-10-11 04:59:00
1:09 AM,44.6,44.6,100,30.16,1.8,Calm,Calm,-,N/A,,Partly Cloudy,0,2013-10-11 05:09:00
1:14 AM,44.6,44.6,100,30.16,0.8,Calm,Calm,-,N/A,,Scattered Clouds,0,2013-10-11 05:14:00
1:19 AM,44.6,44.6,100,30.17,1.0,Calm,Calm,-,N/A,,Mostly Cloudy,0,2013-10-11 05:19:00
1:28 AM,44.6,44.6,100,30.16,9.0,Calm,Calm,-,N/A,,Scattered Clouds,0,2013-10-11 05:28:00
1:34 AM,42.8,42.8,100,30.16,3.0,Calm,Calm,-,N/A,,Mostly Cloudy,0,2013-10-11 05:34:00
1:42 AM,42.8,42.8,100,30.16,1.5,Calm,Calm,-,N/A,,Mostly Cloudy,0,2013-10-11 05:42:00
1:49 AM,44.6,42.8,93,30.15,0.8,Calm,Calm,-,N/A,,Mist,0,2013-10-11 05:49:00
1:56 AM,45.0,45.0,100,30.19,0.5,Calm,Calm,-,N/A,Fog,Fog,0,2013-10-11 05:56:00
2:06 AM,44.6,44.6,100,30.14,2.5,Calm,Calm,-,N/A,,Overcast,0,2013-10-11 06:06:00
2:09 AM,42.8,42.8,100,30.14,7.0,Calm,Calm,-,N/A,,Overcast,0,2013-10-11 06:09:00
2:17 AM,44.6,44.6,100,30.14,1.2,Calm,Calm,-,N/A,,Overcast,0,2013-10-11 06:17:00
2:25 AM,44.6,44.6,100,30.14,0.2,Calm,Calm,-,N/A,Fog,Fog,0,2013-10-11 06:25:00
2:35 AM,44.6,44.6,100,30.14,0.2,Calm,Calm,-,N/A,Fog,Fog,0,2013-10-11 06:35:00
2:46 AM,46.4,44.6,93,30.14,0.5,Calm,Calm,-,N/A,Fog,Fog,0,2013-10-11 06:46:00
2:56 AM,42.1,42.1,100,30.18,0.8,Calm,Calm,-,N/A,,Mist,0,2013-10-11 06:56:00
2:59 AM,42.8,42.8,100,30.14,4.0,Calm,Calm,-,N/A,,Overcast,0,2013-10-11 06:59:00
3:15 AM,42.8,42.8,100,30.13,1.8,Calm,Calm,-,N/A,,Overcast,0,2013-10-11 07:15:00
3:22 AM,42.8,42.8,100,30.13,0.5,Calm,Calm,-,N/A,Fog,Fog,0,2013-10-11 07:22:00
3:30 AM,42.8,42.8,100,30.13,0.2,Calm,Calm,-,N/A,Fog,Fog,0,2013-10-11 07:30:00
3:43 AM,42.8,42.8,100,30.13,0.2,Calm,Calm,-,N/A,Fog,Fog,0,2013-10-11 07:43:00
3:56 AM,43.0,43.0,100,30.18,0.8,Calm,Calm,-,N/A,,Mist,0,2013-10-11 07:56:00
4:09 AM,41.0,41.0,100,30.14,1.0,Calm,Calm,-,N/A,,Mist,0,2013-10-11 08:09:00
4:17 AM,42.8,42.8,100,30.14,0.5,Calm,Calm,-,N/A,Fog,Fog,0,2013-10-11 08:17:00
4:25 AM,42.8,42.8,100,30.14,0.5,Calm,Calm,-,N/A,Fog,Fog,0,2013-10-11 08:25:00
4:37 AM,42.8,42.8,100,30.14,0.5,Calm,Calm,-,N/A,Fog,Fog,0,2013-10-11 08:37:00
4:51 AM,44.6,44.6,100,30.14,2.5,Calm,Calm,-,N/A,,Overcast,0,2013-10-11 08:51:00
4:56 AM,45.0,45.0,100,30.18,8.0,Calm,Calm,-,N/A,,Overcast,0,2013-10-11 08:56:00
5:56 AM,46.9,46.0,97,30.18,10.0,Calm,Calm,-,N/A,,Overcast,0,2013-10-11 09:56:00
6:56 AM,46.9,46.0,97,30.19,10.0,Calm,Calm,-,N/A,,Overcast,0,2013-10-11 10:56:00
7:52 AM,48.2,48.2,100,30.15,10.0,Calm,Calm,-,N/A,,Mostly Cloudy,0,2013-10-11 11:52:00
7:56 AM,48.9,48.0,97,30.19,10.0,Calm,Calm,-,N/A,,Mostly Cloudy,0,2013-10-11 11:56:00
8:56 AM,55.0,50.0,83,30.19,10.0,NNW,3.5,-,N/A,,Partly Cloudy,330,2013-10-11 12:56:00
9:56 AM,59.0,50.0,72,30.19,10.0,North,5.8,-,N/A,,Clear,350,2013-10-11 13:56:00
10:56 AM,64.0,52.0,65,30.18,10.0,North,10.4,-,N/A,,Clear,10,2013-10-11 14:56:00
11:56 AM,66.9,52.0,59,30.18,10.0,North,8.1,-,N/A,,Clear,10,2013-10-11 15:56:00
12:56 PM,68.0,51.1,55,30.16,10.0,Calm,Calm,-,N/A,,Clear,0,2013-10-11 16:56:00
1:56 PM,70.0,48.0,46,30.14,10.0,ENE,8.1,-,N/A,,Clear,70,2013-10-11 17:56:00
2:56 PM,71.1,41.0,34,30.13,10.0,NNE,9.2,-,N/A,,Clear,20,2013-10-11 18:56:00
3:56 PM,69.1,32.0,25,30.13,10.0,NE,9.2,-,N/A,,Clear,40,2013-10-11 19:56:00
4:56 PM,66.9,32.0,27,30.14,10.0,ENE,5.8,-,N/A,,Clear,60,2013-10-11 20:56:00
5:56 PM,61.0,37.0,41,30.15,10.0,NE,5.8,-,N/A,,Clear,50,2013-10-11 21:56:00
6:56 PM,57.0,39.9,53,30.17,10.0,ENE,3.5,-,N/A,,Clear,60,2013-10-11 22:56:00
7:56 PM,54.0,42.1,64,30.17,10.0,Calm,Calm,-,N/A,,Clear,0,2013-10-11 23:56:00
8:56 PM,52.0,44.1,74,30.18,10.0,WNW,3.5,-,N/A,,Clear,300,2013-10-12 00:56:00
9:56 PM,50.0,45.0,83,30.19,10.0,Calm,Calm,-,N/A,,Clear,0,2013-10-12 01:56:00
10:56 PM,51.1,46.0,83,30.19,10.0,Calm,Calm,-,N/A,,Clear,0,2013-10-12 02:56:00
11:56 PM,48.0,46.0,93,30.19,10.0,Calm,Calm,-,N/A,,Clear,0,2013-10-12 03:56:00